FW6441 Weather Reports


Display with metric or nautical units.
time (UTC)temp
F
wind
direction
speed
MPH
gust
MPH
rain 1hr
in
rain 24hr
in
rain mn
in
humidity
%
barometer
mb
20260508073404 61 155 4.0 9.0 0.00 0.00 0.00 76 1010.6
20260508072904 60 155 4.0 9.0 0.00 0.00 0.00 77 1010.6
20260508072404 60 158 5.0 9.0 0.00 0.00 0.00 78 1010.5
20260508071904 59 160 4.0 9.0 0.00 0.00 0.00 79 1010.5
20260508071404 59 163 2.0 8.0 0.00 0.00 0.00 80 1010.6
20260508065904 57 159 3.0 7.0 0.00 0.00 0.00 82 1010.6
20260508065403 57 155 2.0 6.0 0.00 0.00 0.00 82 1010.6
20260508064404 57 160 3.0 7.0 0.00 0.00 0.00 82 1010.5
20260508063903 57 160 3.0 7.0 0.00 0.00 0.00 82 1010.4
20260508062904 57 157 2.0 7.0 0.00 0.00 0.00 82 1010.4
20260508062403 57 159 3.0 7.0 0.00 0.00 0.00 82 1010.4
20260508061904 56 157 4.0 8.0 0.00 0.00 0.00 82 1010.4
20260508061404 56 157 4.0 8.0 0.00 0.00 0.00 82 1010.3
20260508060903 56 159 3.0 6.0 0.00 0.00 0.00 82 1010.3
20260508055904 56 159 3.0 6.0 0.00 0.00 0.00 82 1010.2
20260508055404 56 162 2.0 6.0 0.00 0.00 0.00 82 1010.3
20260508054904 56 169 2.0 6.0 0.00 0.00 0.00 82 1010.2
20260508054404 56 176 1.0 5.0 0.00 0.00 0.00 82 1010.1
20260508053904 56 165 2.0 6.0 0.00 0.00 0.00 82 1010.2
20260508053405 56 164 2.0 6.0 0.00 0.00 0.00 82 1009.9
20260508052904 56 163 2.0 8.0 0.00 0.00 0.00 82 1009.8
20260508052405 56 166 3.0 8.0 0.00 0.00 0.00 81 1009.7
20260508051903 57 164 3.0 6.0 0.00 0.00 0.00 81 1009.7
20260508051404 57 157 2.0 6.0 0.00 0.00 0.00 81 1009.7
20260508050904 57 147 2.0 6.0 0.00 0.00 0.00 81 1009.6
20260508045904 57 161 2.0 6.0 0.00 0.00 0.00 81 1009.3
20260508045403 57 165 2.0 6.0 0.00 0.00 0.00 81 1009.5
20260508044904 57 167 3.0 7.0 0.00 0.00 0.00 81 1009.5
20260508044404 57 169 3.0 8.0 0.00 0.00 0.00 81 1009.3
20260508043404 57 147 2.0 7.0 0.00 0.00 0.00 81 1009.2
20260508042904 57 143 2.0 5.0 0.00 0.00 0.00 81 1009.1
20260508042403 57 152 3.0 8.0 0.00 0.00 0.00 81 1009.0
20260508041405 57 145 2.0 6.0 0.00 0.00 0.00 80 1009.3
20260508040904 57 145 3.0 7.0 0.00 0.00 0.00 81 1009.2
20260508040404 57 153 3.0 7.0 0.00 0.00 0.00 80 1009.1
20260508035904 57 151 2.0 9.0 0.00 0.00 0.00 80 1009.4
20260508035404 57 141 4.0 9.0 0.00 0.00 0.00 80 1009.4
20260508034904 57 139 4.0 9.0 0.00 0.00 0.00 79 1009.3
20260508034403 58 141 3.0 8.0 0.00 0.00 0.00 79 1009.2
20260508033904 58 147 2.0 6.0 0.00 0.00 0.00 79 1009.3
20260508033404 58 152 2.0 5.0 0.00 0.00 0.00 78 1009.3
20260508032903 58 156 2.0 5.0 0.00 0.00 0.00 78 1009.3
20260508032405 58 157 2.0 5.0 0.00 0.00 0.00 78 1009.4
20260508031404 58 158 2.0 6.0 0.00 0.00 0.00 78 1009.6
20260508030905 58 170 3.0 6.0 0.00 0.00 0.00 78 1009.6
20260508030403 58 173 3.0 5.0 0.00 0.00 0.00 78 1009.6
20260508025403 58 160 2.0 6.0 0.00 0.00 0.00 78 1009.7
20260508024903 58 160 3.0 6.0 0.00 0.00 0.00 78 1009.8
20260508023405 58 156 3.0 6.0 0.00 0.00 0.00 78 1009.7
20260508022903 58 146 3.0 8.0 0.00 0.00 0.00 78 1009.7
20260508022405 58 148 3.0 8.0 0.00 0.00 0.00 77 1009.8
20260508021903 59 157 2.0 6.0 0.00 0.00 0.00 77 1009.7
20260508020904 59 165 2.0 5.0 0.00 0.00 0.00 77 1009.7
20260508020403 59 158 2.0 3.0 0.00 0.00 0.00 77 1009.8
20260508015909 59 161 1.0 6.0 0.00 0.00 0.00 76 1009.8
20260508015410 59 165 1.0 5.0 0.00 0.00 0.00 76 1009.8
20260508014909 59 166 2.0 5.0 0.00 0.00 0.00 76 1009.8
20260508014411 59 162 2.0 5.0 0.00 0.00 0.00 76 1009.9
20260508013909 59 154 2.0 5.0 0.00 0.00 0.00 76 1010.0
20260508013410 59 151 2.0 7.0 0.00 0.00 0.00 76 1010.0
20260508012910 59 162 3.0 7.0 0.00 0.00 0.00 76 1009.9
20260508011410 59 159 3.0 8.0 0.00 0.00 0.00 75 1010.1
20260508010909 59 157 2.0 8.0 0.00 0.00 0.00 75 1010.0
20260508010410 60 160 2.0 6.0 0.00 0.00 0.00 75 1010.1
20260508005409 60 182 1.0 5.0 0.00 0.00 0.00 75 1010.2
20260508004910 60 174 1.0 8.0 0.00 0.00 0.00 75 1010.2
20260508004409 60 169 3.0 8.0 0.00 0.00 0.00 75 1010.2
20260508003910 60 174 2.0 6.0 0.00 0.00 0.00 75 1010.3
20260508003409 60 173 1.0 6.0 0.00 0.00 0.00 75 1010.2
20260508002911 60 157 2.0 6.0 0.00 0.00 0.00 75 1010.2
20260508002409 60 163 2.0 6.0 0.00 0.00 0.00 75 1010.1
20260508001909 60 181 2.0 6.0 0.00 0.00 0.00 75 1010.1
20260508000909 60 173 3.0 6.0 0.00 0.00 0.00 75 1010.1
20260508000412 60 175 3.0 7.0 0.00 0.00 0.00 75 1010.2
20260507235910 60 181 2.0 7.0 0.00 0.00 0.00 75 1010.4
20260507234910 60 165 4.0 6.0 0.00 0.00 0.00 75 1010.4
20260507233910 61 174 2.0 6.0 0.00 0.00 0.00 74 1010.3
20260507233409 61 169 2.0 5.0 0.00 0.00 0.00 74 1010.3
20260507232909 61 167 2.0 6.0 0.00 0.00 0.00 74 1010.1
20260507232410 61 175 2.0 6.0 0.00 0.00 0.00 73 1010.2
20260507231909 61 176 2.0 6.0 0.00 0.00 0.00 73 1010.3
20260507231410 61 170 2.0 6.0 0.00 0.00 0.00 72 1010.3
20260507230910 61 166 1.0 5.0 0.00 0.00 0.00 72 1010.4
20260507230409 61 162 2.0 5.0 0.00 0.00 0.00 72 1010.5
20260507225409 62 179 2.0 7.0 0.00 0.00 0.00 71 1010.6
20260507224909 62 194 2.0 6.0 0.00 0.00 0.00 71 1010.6
20260507224410 62 219 2.0 6.0 0.00 0.00 0.00 71 1010.6
20260507223911 62 218 3.0 6.0 0.00 0.00 0.00 71 1010.8
20260507223409 62 217 3.0 6.0 0.00 0.00 0.00 71 1010.9
20260507222910 62 222 2.0 5.0 0.00 0.00 0.00 71 1010.7
20260507221909 62 205 2.0 5.0 0.00 0.00 0.00 70 1010.8
20260507221410 62 216 2.0 7.0 0.00 0.00 0.00 70 1010.8
20260507220909 62 221 2.0 7.0 0.00 0.00 0.00 70 1010.8
20260507220409 62 219 2.0 6.0 0.00 0.00 0.00 70 1010.9
20260507215910 62 226 3.0 8.0 0.00 0.00 0.00 70 1010.8
20260507214409 62 217 3.0 7.0 0.00 0.00 0.00 70 1010.9
20260507213909 62 228 3.0 6.0 0.00 0.00 0.00 70 1010.8
20260507213410 62 230 3.0 9.0 0.00 0.00 0.00 69 1010.8
20260507212909 62 230 4.0 9.0 0.00 0.00 0.00 69 1010.9
20260507212410 62 226 4.0 7.0 0.00 0.00 0.00 69 1010.9
20260507211910 63 217 3.0 7.0 0.00 0.00 0.00 68 1010.7
20260507211410 63 220 3.0 7.0 0.00 0.00 0.00 68 1010.8
20260507210909 63 225 4.0 7.0 0.00 0.00 0.00 67 1010.7
20260507210409 63 220 3.0 7.0 0.00 0.00 0.00 67 1010.7
20260507205912 63 223 3.0 8.0 0.00 0.00 0.00 66 1010.6
20260507205410 63 230 4.0 9.0 0.00 0.00 0.00 65 1010.5
20260507204910 63 230 4.0 9.0 0.00 0.00 0.00 64 1010.4
20260507204409 63 228 4.0 9.0 0.00 0.00 0.00 64 1010.4
20260507203909 63 230 5.0 9.0 0.00 0.00 0.00 63 1010.5
20260507203409 64 233 4.0 8.0 0.00 0.00 0.00 63 1010.4
20260507202910 64 237 4.0 8.0 0.00 0.00 0.00 62 1010.2
20260507202410 64 241 3.0 9.0 0.00 0.00 0.00 62 1010.2
20260507201909 64 263 3.0 9.0 0.00 0.00 0.00 63 1010.1
20260507201409 64 269 3.0 9.0 0.00 0.00 0.00 64 1010.1
20260507200409 64 271 4.0 8.0 0.00 0.00 0.00 64 1010.1
20260507195909 64 279 3.0 8.0 0.00 0.00 0.00 64 1010.1
20260507195409 65 251 3.0 9.0 0.00 0.00 0.00 64 1010.0
20260507194409 65 240 5.0 10.0 0.00 0.00 0.00 64 1009.9
20260507193909 65 237 6.0 11.0 0.00 0.00 0.00 63 1009.9
20260507193409 65 237 6.0 11.0 0.00 0.00 0.00 63 1009.8
20260507192909 65 241 5.0 11.0 0.00 0.00 0.00 62 1009.7
20260507192409 65 243 5.0 14.0 0.00 0.00 0.00 62 1009.8
20260507191411 66 235 8.0 15.0 0.00 0.00 0.00 62 1009.7
20260507190910 66 237 8.0 13.0 0.00 0.00 0.00 62 1009.6
20260507190409 66 235 7.0 15.0 0.00 0.00 0.00 61 1009.6
20260507185910 66 231 7.0 15.0 0.00 0.00 0.00 60 1009.5
20260507184909 67 237 9.0 17.0 0.00 0.00 0.00 58 1009.4
20260507184410 67 238 10.0 17.0 0.00 0.00 0.00 56 1009.3
20260507183910 67 235 9.0 17.0 0.00 0.00 0.00 56 1009.2
20260507183409 68 231 8.0 19.0 0.00 0.00 0.00 56 1009.0
20260507182910 68 234 9.0 19.0 0.00 0.00 0.00 56 1009.1
20260507182410 68 241 7.0 17.0 0.00 0.00 0.00 55 1009.0
20260507181409 69 237 8.0 17.0 0.00 0.00 0.00 54 1008.9
20260507180908 69 235 9.0 17.0 0.00 0.00 0.00 54 1008.8
20260507180409 69 236 8.0 15.0 0.00 0.00 0.00 53 1008.8
20260507175910 69 239 7.0 15.0 0.00 0.00 0.00 53 1008.8
20260507175409 70 245 8.0 19.0 0.00 0.00 0.00 53 1008.6
20260507174910 70 239 9.0 19.0 0.00 0.00 0.00 52 1008.6
20260507173909 70 238 8.0 17.0 0.00 0.00 0.00 51 1008.6
20260507173408 70 237 9.0 17.0 0.00 0.00 0.00 50 1008.7
20260507172910 71 234 8.0 16.0 0.00 0.00 0.00 50 1008.6
20260507171410 71 236 10.0 19.0 0.00 0.00 0.00 48 1008.3
20260507170908 71 242 8.0 19.0 0.00 0.00 0.00 47 1008.4
20260507170410 72 244 5.0 15.0 0.00 0.00 0.00 47 1008.3
20260507165909 72 241 6.0 15.0 0.00 0.00 0.00 46 1008.3
20260507165409 72 223 7.0 17.0 0.00 0.00 0.00 46 1008.2
20260507164909 72 218 8.0 17.0 0.00 0.00 0.00 46 1008.2
20260507164408 72 231 8.0 18.0 0.00 0.00 0.00 46 1008.2
20260507163910 73 231 7.0 18.0 0.00 0.00 0.00 45 1008.2
20260507162908 73 236 8.0 18.0 0.00 0.00 0.00 45 1008.2
20260507162409 72 234 8.0 18.0 0.00 0.00 0.00 46 1008.1
20260507161910 73 226 8.0 14.0 0.00 0.00 0.00 46 1008.1
20260507161408 73 225 8.0 16.0 0.00 0.00 0.00 45 1008.1
20260507160410 73 233 8.0 18.0 0.00 0.00 0.00 45 1008.1
20260507155909 73 232 8.0 18.0 0.00 0.00 0.00 45 1008.0
20260507155410 73 230 9.0 18.0 0.00 0.00 0.00 45 1008.0
20260507153909 74 239 7.0 13.0 0.00 0.00 0.00 43 1008.0
20260507153408 74 235 7.0 16.0 0.00 0.00 0.00 43 1008.0
20260507152909 74 236 7.0 16.0 0.00 0.00 0.00 43 1008.0
20260507152409 74 238 7.0 15.0 0.00 0.00 0.00 43 1008.1
20260507151909 74 241 6.0 13.0 0.00 0.00 0.00 43 1008.0
20260507151408 74 235 8.0 17.0 0.00 0.00 0.00 44 1008.1
20260507150909 73 229 8.0 17.0 0.00 0.00 0.00 45 1008.2
20260507150408 74 228 7.0 16.0 0.00 0.00 0.00 45 1008.2
20260507145909 73 228 10.0 21.0 0.00 0.00 0.00 46 1008.1
20260507144908 73 231 8.0 17.0 0.00 0.00 0.00 46 1008.3
20260507144409 74 236 8.0 16.0 0.00 0.00 0.00 45 1008.4
20260507143909 73 230 7.0 16.0 0.00 0.00 0.00 45 1008.3
20260507143409 73 228 7.0 16.0 0.00 0.00 0.00 47 1008.4
20260507142910 73 240 7.0 15.0 0.00 0.00 0.00 46 1008.4
20260507142408 73 235 9.0 21.0 0.00 0.00 0.00 47 1008.4
20260507141909 72 233 9.0 21.0 0.00 0.00 0.00 48 1008.3
20260507141408 73 243 6.0 13.0 0.00 0.00 0.00 47 1008.5
20260507140909 73 243 8.0 15.0 0.00 0.00 0.00 49 1008.4
20260507140408 72 231 10.0 17.0 0.00 0.00 0.00 49 1008.5
20260507135908 72 225 10.0 17.0 0.00 0.00 0.00 49 1008.6
20260507134909 72 237 8.0 20.0 0.00 0.00 0.00 51 1008.7
20260507134408 72 230 9.0 17.0 0.00 0.00 0.00 50 1008.7
20260507133909 72 222 8.0 17.0 0.00 0.00 0.00 50 1008.7
20260507133408 72 229 9.0 17.0 0.00 0.00 0.00 49 1008.8
20260507132909 71 233 10.0 17.0 0.00 0.00 0.00 50 1008.9
20260507132409 71 228 10.0 17.0 0.00 0.00 0.00 49 1009.0
20260507131909 71 229 11.0 22.0 0.00 0.00 0.00 51 1008.9
20260507131408 71 233 10.0 22.0 0.00 0.00 0.00 51 1009.0
20260507130909 71 232 8.0 19.0 0.00 0.00 0.00 50 1009.0
20260507130408 71 223 8.0 19.0 0.00 0.00 0.00 52 1009.0
20260507125909 71 206 7.0 16.0 0.00 0.00 0.00 51 1009.0
20260507125409 71 198 8.0 16.0 0.00 0.00 0.00 53 1009.1
20260507124908 71 200 8.0 16.0 0.00 0.00 0.00 52 1009.1
20260507124409 71 217 9.0 19.0 0.00 0.00 0.00 54 1009.3
20260507123908 70 227 9.0 19.0 0.00 0.00 0.00 53 1009.3
20260507122910 71 219 9.0 20.0 0.00 0.00 0.00 53 1009.4
20260507122409 71 228 10.0 19.0 0.00 0.00 0.00 53 1009.4
20260507121408 71 222 9.0 18.0 0.00 0.00 0.00 53 1009.4
20260507120910 72 207 8.0 17.0 0.00 0.00 0.00 54 1009.4
20260507120408 72 194 8.0 17.0 0.00 0.00 0.00 53 1009.4
20260507115908 72 185 8.0 17.0 0.00 0.00 0.00 53 1009.3
20260507115408 71 182 8.0 17.0 0.00 0.00 0.00 52 1009.4
20260507114908 71 193 8.0 16.0 0.00 0.00 0.00 53 1009.5
20260507114409 71 199 8.0 16.0 0.00 0.00 0.00 54 1009.4
20260507113410 70 201 7.0 16.0 0.00 0.00 0.00 56 1009.5
20260507112908 70 201 6.0 16.0 0.00 0.00 0.00 58 1009.5
20260507112408 69 195 6.0 16.0 0.00 0.00 0.00 59 1009.5
20260507111908 69 203 7.0 18.0 0.00 0.00 0.00 59 1009.6
20260507111409 69 205 6.0 18.0 0.00 0.00 0.00 59 1009.6
20260507105909 69 207 6.0 12.0 0.00 0.00 0.00 59 1009.5
20260507105408 69 208 6.0 11.0 0.00 0.00 0.00 61 1009.6
20260507104908 69 208 6.0 14.0 0.00 0.00 0.00 60 1009.6
20260507104410 69 209 6.0 14.0 0.00 0.00 0.00 59 1009.6
20260507103908 69 205 6.0 16.0 0.00 0.00 0.00 59 1009.7
20260507103410 69 193 5.0 16.0 0.00 0.00 0.00 58 1009.7
20260507102908 70 196 5.0 14.0 0.00 0.00 0.00 60 1009.8
20260507102408 69 216 6.0 14.0 0.00 0.00 0.00 62 1009.8
20260507101908 69 214 6.0 14.0 0.00 0.00 0.00 62 1009.8
20260507101409 69 201 5.0 13.0 0.00 0.00 0.00 61 1009.7
20260507100909 69 187 6.0 13.0 0.00 0.00 0.00 63 1009.9
20260507095908 67 205 7.0 16.0 0.00 0.00 0.00 66 1009.8
20260507094909 67 178 7.0 16.0 0.00 0.00 0.00 65 1009.9
20260507094408 67 177 7.0 16.0 0.00 0.00 0.00 63 1010.0
20260507093909 68 174 6.0 14.0 0.00 0.00 0.00 65 1009.8
20260507093409 67 165 5.0 13.0 0.00 0.00 0.00 66 1009.8
20260507092908 68 170 6.0 18.0 0.00 0.00 0.00 66 1010.0
20260507092408 67 166 8.0 18.0 0.00 0.00 0.00 67 1009.9
20260507091408 67 164 8.0 14.0 0.00 0.00 0.00 66 1010.0
20260507090908 67 162 7.0 14.0 0.00 0.00 0.00 68 1009.9
20260507085908 65 165 7.0 18.0 0.00 0.00 0.00 72 1009.9
20260507084409 64 175 7.0 15.0 0.00 0.00 0.00 73 1009.9
20260507083909 64 166 7.0 15.0 0.00 0.00 0.00 73 1009.9
20260507083408 65 156 7.0 16.0 0.00 0.00 0.00 73 1009.8
20260507082908 65 158 7.0 16.0 0.00 0.00 0.00 73 1009.7
20260507082409 64 176 7.0 14.0 0.00 0.00 0.00 74 1009.7
20260507081909 64 174 7.0 15.0 0.00 0.00 0.00 73 1009.8
20260507081409 63 167 7.0 15.0 0.00 0.00 0.00 73 1009.8
20260507080408 63 166 6.0 14.0 0.00 0.00 0.00 73 1009.8
20260507075908 63 160 7.0 14.0 0.00 0.00 0.00 74 1009.8
20260507075408 62 158 7.0 15.0 0.00 0.00 0.00 74 1009.7
20260507074908 62 158 6.0 15.0 0.00 0.00 0.00 74 1009.7
20260507074408 62 159 6.0 14.0 0.00 0.00 0.00 74 1009.6